User: anonymous   Login
Location: Trois-Rivi�res
(46.3500°N, 72.5500°W)
Time: 16:38:23
(UTC-04:00)
Language:

Cosmos 1544 - Orbit

View from above orbital plane
View from above orbital plane
View from above satellite
View from above satellite

Ground track
Ground track

The orbit data is extracted from the following two-line orbital elements,

1 14819U 84027A   18144.79279858 +.00000780 +00000-0 +28331-4 0  9993
2 14819 082.4857 044.2040 0012313 279.4772 080.5075 15.26688759867914
Epoch (UTC): 24 May 2018 19:01:37
Eccentricity: 0.0012313
inclination: 82.4857°
perigee height: 477 km
apogee height: 494 km
right ascension of ascending node: 44.2040°
argument of perigee: 279.4772°
revolutions per day: 15.26688759
mean anomaly at epoch: 80.5075°
orbit number at epoch: 86791

The dashed part of the orbit path shows where the satellite is in the earth's shadow,  

DLR